Regional Weather Roundup
Issued by NWS Kansas City/Pleasant Hill, MO

Home | Current Version | Previous Version | Graphics & Text | Print | Product List | Glossary Off
Versions: 1 2 3 4 5 6 7 8 9 10 11 12 13 14 15 16 17 18 19 20 21 22 23 24 25 26 27 28 29 30 31 32 33 34 35 36 37 38 39 40 41 42 43 44 45 46 47 48 49

200
ASUS43 KEAX 080310
RWREAX

WEATHER ROUNDUP FOR EASTERN KANSAS AND NORTHWEST MISSOURI
NATIONAL WEATHER SERVICE KANSAS CITY/PLEASANT HILL MO
900 PM CST SUN FEB 07 2016

KSZ040-057-103>105-MOZ028-029-037-043-080400-
...KANSAS CITY METROPOLITAN AREA...

CITY           SKY/WX    TMP DP  RH WIND       PRES   REMARKS
K.C. INTL      CLOUDY    38  27  64 NW18G31   30.01F WCI  28
K.C. DOWNTOWN  CLOUDY    40  27  59 NW17G28   30.01F WCI  31
LEES SUMMIT    CLOUDY    38  27  64 NW15G33   30.02F WCI  29
OLATHE - IXD   CLOUDY    39  25  57 NW16G30   30.05F WCI  30
OLATHE - OJC   CLOUDY    39  24  55 NW18G26   30.03F WCI  30
LAWRENCE       CLOUDY    40  26  57 NW20G32   30.06F WCI  30

$$

MOZ001>008-011>017-020>025-030>033-038>040-044>046-053-054-080400-
...NORTHERN AND CENTRAL MISSOURI...

CITY           SKY/WX    TMP DP  RH WIND       PRES   REMARKS
ST. JOSEPH     CLOUDY    37  27  67 NW26G37   30.01F WCI  25
MOSBY          LGT RAIN  36  30  80 W14G22    30.01S WCI  27
WARRENSBURG    CLOUDY    37  28  70 W15G25    30.00S WCI  28
WHITEMAN AFB   MOCLDY    39  27  60 NW23G31   29.97R WCI  29
CLINTON          N/A     43  25  49 W24G36    30.00F WCI  33
SEDALIA        CLOUDY    42  25  50 NW18G32   29.97S WCI  34
WARSAW         NOT AVBL
CHILLICOTHE      N/A     39  29  67 VRB7G26   29.95F WCI  34
KIRKSVILLE     FLURRIES  34  30  85 W16G23    29.88F WCI  24

$$

MOZ041-047>049-056>058-063>065-088>090-097-080400-
...EASTERN AND SOUTHERN MISSOURI...

CITY           SKY/WX    TMP DP  RH WIND       PRES   REMARKS
ST. LOUIS INTL PTCLDY    39  30  70 W5        29.89F
SPIRIT OF STL  MOCLDY    37  30  75 CALM      29.90F
COLUMBIA       PTCLDY    41  23  48 NW10      29.91F WCI  35
JEFFERSON CITY PTCLDY    43  21  41 W14       29.93F
ROLLA          PTCLDY    42  21  43 W14       29.91F WCI  35
OSAGE BEACH    MOCLDY    43  18  36 W7G16     29.96S
SPRINGFIELD    CLEAR     41  17  38 W8        30.01S
BRANSON        PTCLDY    45  18  33 NW12      30.04R
JOPLIN         MOCLDY    43  17  35 W13       30.08S
WEST PLAINS    CLEAR     41  25  53 W8        29.98F

$$

IAZ060-094-KSZ022-034>040-054-083-096-NEZ052-066-093-080400-
...KANSAS...SOUTHEAST NEBRASKA AND IOWA...

CITY           SKY/WX    TMP DP  RH WIND       PRES   REMARKS
TOPEKA         CLOUDY    41  23  48 W14       30.07F WCI  33
MANHATTAN      CLOUDY    40  21  46 W10       30.12R WCI  33
EMPORIA        PTCLDY    37  21  52 NW10      30.11R WCI  30
CHANUTE        PTCLDY    43  19  38 NW16G24   30.11R
WICHITA        CLEAR     40  21  46 NW18G26   30.18S WCI  31
OMAHA          MIX PCPN  34  28  79 NW16G25   29.98S WCI  24
LINCOLN        CLOUDY    36  28  73 NW8       30.05S WCI  30
FALLS CITY     CLOUDY    35  30  82 NW12      30.02S WCI  27
LAMONI         CLOUDY    34  29  82 NW22G29   29.89F WCI  22
DES MOINES     FLURRIES  34  29  82 NW22G28   29.85S WCI  22

$$





USA.gov is the U.S. government's official web portal to all federal, state and local government web resources and services.